When you browse on this site, cookies collect data to enhance your experience and personalize the content and advertising you see.
Visit our Privacy Policy to learn more. By continuing to use the site, you agree to this use of cookies and data.
  • In Czech Republic
  • List of Countries
  • For 7 days
  • Water Temperature
  • Satellite Maps
  • Weather Map
  • Weather Widgets
  • user-avatar
    Login

    Hourly Weather Jarim

    Today, 21 January, Monday

    Time Temperature Precipitation Wind Pressure Humidity
    00:00 +12°C° 0 mm 1 mps 554 mmHg 74%
    01:00 +11°C° 0 mm 0 mps 554 mmHg 75%
    02:00 +11°C° 0 mm 0 mps 554 mmHg 75%
    03:00 +10°C° 0 mm 0 mps 553 mmHg 74%
    04:00 +10°C° 0 mm 0 mps 553 mmHg 76%
    05:00 +9°C° 0 mm 0 mps 553 mmHg 77%
    06:00 +9°C° 0 mm 0 mps 553 mmHg 79%
    07:00 +10°C° 0 mm 0 mps 554 mmHg 75%
    08:00 +12°C° 0 mm 1 mps 555 mmHg 70%
    09:00 +14°C° 0 mm 1 mps 556 mmHg 61%
    10:00 +15°C° 0 mm 1 mps 556 mmHg 54%
    11:00 +16°C° 0 mm 2 mps 557 mmHg 46%
    12:00 +18°C° 0 mm 2 mps 557 mmHg 39%
    13:00 +18°C° 0 mm 3 mps 557 mmHg 40%
    14:00 +18°C° 0 mm 3 mps 556 mmHg 40%
    15:00 +18°C° 0 mm 4 mps 556 mmHg 41%
    16:00 +17°C° 0 mm 3 mps 556 mmHg 47%
    17:00 +16°C° 0 mm 3 mps 555 mmHg 52%
    18:00 +14°C° 0 mm 3 mps 554 mmHg 57%
    19:00 +15°C° 0 mm 2 mps 554 mmHg 60%
    20:00 +14°C° 0 mm 2 mps 554 mmHg 64%
    21:00 +14°C° 0 mm 1 mps 554 mmHg 67%
    22:00 +13°C° 0 mm 1 mps 554 mmHg 68%
    23:00 +13°C° 0 mm 1 mps 554 mmHg 69%

    Tomorrow, 22 January, Tuesday

    Time Temperature Precipitation Wind Pressure Humidity
    00:00 +13°C° 0 mm 1 mps 553 mmHg 70%
    01:00 +12°C° 0 mm 1 mps 553 mmHg 71%
    02:00 +12°C° 0 mm 1 mps 552 mmHg 73%
    03:00 +10°C° 0 mm 0 mps 552 mmHg 74%
    04:00 +10°C° 0 mm 0 mps 552 mmHg 76%
    05:00 +9°C° 0 mm 0 mps 552 mmHg 78%
    06:00 +9°C° 0 mm 0 mps 552 mmHg 80%
    07:00 +10°C° 0 mm 0 mps 553 mmHg 70%
    08:00 +12°C° 0 mm 0 mps 554 mmHg 60%
    09:00 +14°C° 0 mm 0 mps 555 mmHg 50%
    10:00 +16°C° 0 mm 1 mps 556 mmHg 42%
    11:00 +18°C° 0 mm 2 mps 556 mmHg 35%
    12:00 +19°C° 0 mm 2 mps 557 mmHg 27%
    13:00 +19°C° 0 mm 3 mps 556 mmHg 31%
    14:00 +19°C° 0 mm 4 mps 556 mmHg 34%
    15:00 +19°C° 0 mm 4 mps 556 mmHg 38%
    16:00 +18°C° 0 mm 4 mps 555 mmHg 46%
    17:00 +17°C° 0 mm 3 mps 554 mmHg 54%
    18:00 +14°C° 0 mm 3 mps 554 mmHg 62%
    19:00 +15°C° 0 mm 2 mps 554 mmHg 66%
    20:00 +14°C° 0 mm 2 mps 554 mmHg 70%
    21:00 +14°C° 0 mm 1 mps 554 mmHg 73%
    22:00 +13°C° 0 mm 1 mps 554 mmHg 75%
    23:00 +12°C° 0 mm 0 mps 553 mmHg 77%

    Day after tomorrow, 23 January, Wednesday

    Time Temperature Precipitation Wind Pressure Humidity
    00:00 +12°C° 0 mm 0 mps 553 mmHg 79%
    01:00 +11°C° 0 mm 0 mps 552 mmHg 81%
    02:00 +11°C° 0 mm 0 mps 552 mmHg 83%
    03:00 +10°C° 0 mm 0 mps 551 mmHg 84%
    04:00 +10°C° 0 mm 0 mps 551 mmHg 86%
    05:00 +9°C° 0 mm 0 mps 551 mmHg 87%
    06:00 +8°C° 0 mm 0 mps 551 mmHg 89%
    07:00 +10°C° 0 mm 0 mps 552 mmHg 76%
    08:00 +12°C° 0 mm 0 mps 553 mmHg 64%
    09:00 +14°C° 0 mm 1 mps 555 mmHg 52%
    10:00 +16°C° 0 mm 1 mps 555 mmHg 44%
    11:00 +18°C° 0 mm 2 mps 556 mmHg 36%
    12:00 +19°C° 0 mm 3 mps 556 mmHg 28%
    13:00 +19°C° 0 mm 3 mps 556 mmHg 29%
    14:00 +20°C° 0 mm 3 mps 556 mmHg 29%
    15:00 +20°C° 0 mm 4 mps 555 mmHg 30%
    16:00 +19°C° 0 mm 4 mps 555 mmHg 37%
    17:00 +18°C° 0 mm 3 mps 554 mmHg 44%
    18:00 +17°C° 0 mm 3 mps 554 mmHg 51%
    19:00 +16°C° 0 mm 2 mps 554 mmHg 58%
    20:00 +15°C° 0 mm 2 mps 554 mmHg 64%
    21:00 +14°C° 0 mm 1 mps 554 mmHg 70%
    22:00 +14°C° 0 mm 1 mps 554 mmHg 72%
    23:00 +13°C° 0 mm 1 mps 554 mmHg 75%

    24 January, Thursday

    Time Temperature Precipitation Wind Pressure Humidity
    00:00 +13°C° 0 mm 1 mps 554 mmHg 78%
    01:00 +13°C° 0 mm 1 mps 553 mmHg 80%
    02:00 +12°C° 0 mm 1 mps 552 mmHg 82%
    03:00 +11°C° 0 mm 0 mps 552 mmHg 84%
    04:00 +10°C° 0 mm 0 mps 552 mmHg 86%
    05:00 +10°C° 0 mm 0 mps 552 mmHg 88%
    06:00 +9°C° 0 mm 0 mps 552 mmHg 90%
    07:00 +11°C° 0 mm 0 mps 553 mmHg 79%
    08:00 +13°C° 0 mm 1 mps 554 mmHg 69%
    09:00 +14°C° 0 mm 1 mps 555 mmHg 59%
    10:00 +16°C° 0 mm 1 mps 556 mmHg 48%
    11:00 +18°C° 0 mm 2 mps 556 mmHg 38%
    12:00 +19°C° 0 mm 3 mps 557 mmHg 27%
    13:00 +20°C° 0 mm 3 mps 556 mmHg 27%
    14:00 +20°C° 0 mm 3 mps 556 mmHg 27%
    15:00 +21°C° 0 mm 4 mps 556 mmHg 26%
    16:00 +19°C° 0 mm 4 mps 555 mmHg 33%
    17:00 +18°C° 0 mm 3 mps 555 mmHg 39%
    18:00 +17°C° 0 mm 3 mps 555 mmHg 45%
    19:00 +16°C° 0 mm 2 mps 555 mmHg 50%
    20:00 +16°C° 0 mm 2 mps 555 mmHg 55%
    21:00 +15°C° 0 mm 1 mps 555 mmHg 60%
    22:00 +15°C° 0 mm 1 mps 555 mmHg 61%
    23:00 +14°C° 0 mm 1 mps 555 mmHg 62%

    25 January, Friday

    Time Temperature Precipitation Wind Pressure Humidity
    00:00 +14°C° 0 mm 1 mps 554 mmHg 63%
    01:00 +13°C° 0 mm 1 mps 554 mmHg 65%
    02:00 +12°C° 0 mm 0 mps 553 mmHg 68%
    03:00 +11°C° 0 mm 0 mps 553 mmHg 70%
    04:00 +11°C° 0 mm 0 mps 553 mmHg 72%
    05:00 +10°C° 0 mm 0 mps 553 mmHg 73%
    06:00 +10°C° 0 mm 0 mps 553 mmHg 75%
    07:00 +12°C° 0 mm 1 mps 554 mmHg 68%
    08:00 +14°C° 0 mm 1 mps 555 mmHg 60%
    09:00 +15°C° 0 mm 1 mps 556 mmHg 53%
    10:00 +16°C° 0 mm 1 mps 557 mmHg 47%
    11:00 +19°C° 0 mm 1 mps 557 mmHg 41%
    12:00 +19°C° 0 mm 2 mps 557 mmHg 36%
    13:00 +19°C° 0 mm 2 mps 557 mmHg 34%
    14:00 +20°C° 0 mm 2 mps 556 mmHg 33%
    15:00 +20°C° 0 mm 2 mps 556 mmHg 32%
    16:00 +19°C° 0 mm 2 mps 556 mmHg 37%
    17:00 +18°C° 0 mm 2 mps 555 mmHg 42%
    18:00 +17°C° 0 mm 2 mps 555 mmHg 47%
    19:00 +16°C° 0 mm 2 mps 555 mmHg 50%
    20:00 +15°C° 0 mm 2 mps 555 mmHg 53%
    21:00 +15°C° 0 mm 1 mps 555 mmHg 56%
    22:00 +14°C° 0 mm 1 mps 555 mmHg 57%
    23:00 +14°C° 0 mm 1 mps 554 mmHg 58%

    26 January, Saturday

    Time Temperature Precipitation Wind Pressure Humidity
    00:00 +13°C° 0 mm 1 mps 554 mmHg 59%
    01:00 +13°C° 0 mm 1 mps 554 mmHg 60%
    02:00 +12°C° 0 mm 1 mps 553 mmHg 61%
    03:00 +12°C° 0 mm 1 mps 553 mmHg 62%
    04:00 +11°C° 0 mm 1 mps 553 mmHg 62%
    05:00 +11°C° 0 mm 1 mps 553 mmHg 62%
    06:00 +10°C° 0 mm 1 mps 553 mmHg 62%
    07:00 +12°C° 0 mm 1 mps 554 mmHg 55%
    08:00 +13°C° 0 mm 1 mps 555 mmHg 47%
    09:00 +15°C° 0 mm 1 mps 556 mmHg 40%
    10:00 +16°C° 0 mm 1 mps 556 mmHg 35%
    11:00 +17°C° 0 mm 2 mps 557 mmHg 30%
    12:00 +19°C° 0 mm 2 mps 557 mmHg 25%
    13:00 +19°C° 0 mm 2 mps 557 mmHg 24%
    14:00 +20°C° 0 mm 3 mps 557 mmHg 22%
    15:00 +20°C° 0 mm 3 mps 557 mmHg 20%
    16:00 +19°C° 0 mm 3 mps 556 mmHg 25%
    17:00 +18°C° 0 mm 3 mps 556 mmHg 30%
    18:00 +17°C° 0 mm 3 mps 556 mmHg 35%
    19:00 +16°C° 0 mm 3 mps 555 mmHg 39%
    20:00 +14°C° 0 mm 3 mps 555 mmHg 43%
    21:00 +13°C° 0 mm 3 mps 555 mmHg 47%
    22:00 +13°C° 0 mm 3 mps 555 mmHg 49%
    23:00 +13°C° 0 mm 2 mps 555 mmHg 50%
    Show more